[[{"header":{"parameterUnit":"m.s-1","parameterCategory":2,"la1":30.2991,"la2":30.254,"lo1":-89.0895,"lo2":-89.0444,"dy":0.0017,"dx":0.0017,"nx":28,"ny":28,"refTime":"2023-08-10T21:00:00:Z","depth":"0","parameterNumber":2,"parameterNumberName":"U-component_of_CURRENTS"},"data":[0,0,0,0,0,0,0,0,0,0,0,0,0,0,0,0,0,0,0,0,0,0,0,0,0,0,0,0,0,0,0,0,0,0,0,0,0,0,0,0,0,0,0,0,0,0,0,0,0,0,0,0,0,0,0,0,0,0,0.2053,0.2053,0,0.211,0.2111,0.2112,0.2096,0.2095,0.2094,0.2092,0.2099,0.21,0.2102,0,0,0,0,0,0,0,0,0,0,0,0,0,0.197,0.1971,0.2053,0.2053,0.2054,0.211,0.2111,0.2112,0.2097,0.2095,0.2093,0.2092,0.2098,0.21,0.2102,0,0,0,0,0,0,0,0,0,0,0,0,0,0.2016,0.1972,0.2053,0.2051,0.2051,0.2109,0.2111,0.2112,0.2097,0.2095,0.2093,0.2091,0.2098,0.21,0.2102,0.2156,0,0,0.2109,0.211,0,0,0,0,0,0,0,0,0.2014,0.202,0.2051,0.2051,0.2052,0.2092,0.2084,0.2123,0.2098,0.2082,0.2092,0.209,0.2092,0.2094,0.2114,0.2156,0.2157,0.2109,0.211,0.2111,0.2112,0,0,0,0,0,0,0,0.201,0.2017,0.2078,0.2051,0.2052,0.2061,0.2065,0.2092,0.2099,0.2083,0.2082,0.2085,0.2092,0.2112,0.2113,0.2157,0.2109,0.2111,0.2112,0.2113,0.2312,0.2315,0,0,0,0,0,0,0.1999,0.2014,0.2076,0.2079,0.2025,0.2064,0.2069,0.2083,0.2099,0.21,0.2087,0.2084,0.2109,0.2111,0.2114,0.2233,0.2111,0.2113,0.2114,0.2308,0.2312,0.2317,0,0,0,0,0,0,0.1998,0.2005,0.2073,0.2045,0.2054,0.2067,0.2083,0.2085,0.211,0.2102,0.2101,0.211,0.2108,0.2111,0.2171,0.223,0.2114,0.2116,0.2303,0.2309,0.2315,0.2435,0,0,0,0,0,0,0.1995,0.2004,0.2028,0.2045,0.2055,0.2125,0.2085,0.2088,0.2114,0.2111,0.2122,0.212,0.2106,0.2169,0.2174,0.2231,0.2118,0.2298,0.2306,0.2313,0.2426,0.2445,0.246,0,0,0,0,0,0.1992,0.2038,0.2029,0.2037,0.2082,0.2127,0.2135,0.2137,0.2117,0.2149,0.2165,0.212,0.2219,0.2174,0.2179,0.2238,0.2294,0.2303,0.2312,0.2419,0.2441,0.246,0,0,0,0,0,0,0.2031,0.2041,0.2032,0.2082,0.2105,0.2123,0.2158,0.2152,0.2191,0.2188,0.2172,0.2174,0.2246,0.2238,0.2188,0.2322,0.225,0.226,0.2329,0.235,0.2367,0.2345,0.2119,0,0,0,0,0,0.2046,0.2072,0.2085,0.2128,0.2141,0.2151,0.2173,0.2171,0.2198,0.2212,0.222,0.2245,0.2291,0.2314,0.2342,0.2419,0.2445,0.2463,0.248,0.2495,0.2484,0.2599,0.2625,0.2346,0.2346,0.2346,0,0,0.2069,0.2082,0.2096,0.2136,0.2154,0.2193,0.2161,0.2201,0.2237,0.2209,0.2274,0.23,0.2325,0.241,0.2442,0.2408,0.26,0.2506,0.2518,0.2499,0.2611,0.2638,0.2661,0.2352,0.2351,0.235,0,0,0.2121,0.2144,0.2173,0.22,0.2227,0.2242,0.2255,0.2282,0.23,0.2369,0.2365,0.243,0.2488,0.2528,0.2553,0.2686,0.2682,0.2701,0.2774,0.2887,0.291,0.2931,0.3044,0.3073,0.2716,0.2716,0.2716,0,0.2143,0.2183,0.2195,0.2233,0.2258,0.2265,0.2304,0.2342,0.2387,0.242,0.2401,0.2534,0.2545,0.2665,0.2709,0.2721,0.2786,0.269,0.2908,0.2929,0.2947,0.3058,0.3089,0.2723,0.2722,0.2721,0.2721,0,0.2205,0.2243,0.2272,0.2312,0.2352,0.2393,0.2428,0.2476,0.2496,0.2529,0.264,0.2685,0.2758,0.2792,0.2786,0.2938,0.2945,0.2911,0.2848,0.2982,0.3091,0.3121,0.2733,0.273,0.2728,0.2726,0,0,0.2211,0.2292,0.2297,0.232,0.239,0.2419,0.2505,0.2577,0.2629,0.2703,0.2793,0.2892,0.2911,0.2942,0.2967,0.3063,0.3262,0.3049,0.3051,0.3148,0.3537,0.3613,0.3653,0.3278,0.3283,0.3287,0.3576,0,0.2241,0.2309,0.2353,0.2424,0.2458,0.2509,0.2585,0.2658,0.272,0.2817,0.29,0.2994,0.2974,0.3024,0.3125,0.3214,0.334,0.3187,0.3402,0.3408,0.3449,0.3689,0.3687,0.395,0.3604,0.3609,0.3613,0,0.2264,0.2306,0.2371,0.2458,0.2478,0.2529,0.2633,0.2702,0.2845,0.2904,0.3025,0.3086,0.3249,0.3202,0.3454,0.3365,0.3463,0.3533,0.3546,0.3583,0.3541,0.3754,0.4017,0.3829,0.3658,0.3655,0.3651,0,0.2221,0.2313,0.2358,0.2387,0.2494,0.2535,0.2595,0.2721,0.2793,0.2962,0.3046,0.3229,0.3323,0.3488,0.363,0.3567,0.3905,0.3833,0.4007,0.4013,0.4033,0.4032,0.412,0.4035,0.4034,0.4033,0.4033,0,0.2223,0.2255,0.2333,0.2353,0.2411,0.2497,0.258,0.2669,0.2822,0.2933,0.3076,0.3216,0.3398,0.3598,0.3717,0.3986,0.3993,0.4081,0.412,0.4082,0.4082,0.3929,0.3843,0.4044,0.4042,0.404,0.4038,0,0.2173,0.2226,0.2269,0.2361,0.2387,0.242,0.2548,0.2626,0.2768,0.2924,0.2993,0.3247,0.3531,0.3732,0.4013,0.4105,0.4251,0.4418,0.4367,0.4396,0.4368,0.4291,0.4272,0.4156,0.4689,0.4693,0.4697,0,0.2162,0.2176,0.2241,0.2262,0.2299,0.2363,0.2429,0.2577,0.2671,0.2949,0.3039,0.3354,0.3585,0.4057,0.4322,0.4637,0.4406,0.4775,0.465,0.4432,0.4374,0.408,0.3958,0.4743,0.4746,0.4749,0.4752,0,0.2134,0.2144,0.2177,0.2213,0.2259,0.2318,0.2417,0.2485,0.2686,0.2849,0.3104,0.3316,0.3808,0.4153,0.4571,0.4768,0.4559,0.4845,0.4641,0.4475,0.4141,0.4024,0.4462,0.4777,0.4775,0.4773,0.4771,0.477,0.2102,0.2108,0.2144,0.2176,0.2221,0.2274,0.232,0.2462,0.2621,0.2871,0.3083,0.3405,0.3901,0.4524,0.4685,0.4927,0.4756,0.486,0.4809,0.4542,0.4351,0.4857,0.5184,0.5183,0.5183,0.5183,0.5183,0,0.2077,0.209,0.2117,0.2153,0.2179,0.2216,0.2325,0.2392,0.2562,0.2831,0.3066,0.3595,0.4028,0.4421,0.4881,0.4857,0.4622,0.4748,0.4303,0.4203,0.4721,0.4639,0.4834,0.4834,0.4834,0.4834,0.4835,0.4835,0.2065,0.2077,0.2091,0.2107,0.2127,0.2169,0.2214,0.2336,0.2515,0.2837,0.3124,0.3383,0.3902,0.4432,0.4631,0.4626,0.4219,0.4156,0.397,0.4308,0.4308,0.4307,0.4203,0.4304,0.4304,0.3294,0.3287,0.3282]},{"header":{"parameterUnit":"m.s-1","parameterCategory":2,"la1":30.2991,"la2":30.254,"lo1":-89.0895,"lo2":-89.0444,"dy":0.0017,"dx":0.0017,"nx":28,"ny":28,"refTime":"2023-08-10T21:00:00:Z","depth":"0","parameterNumber":3,"parameterNumberName":"V-component_of_CURRENTS"},"data":[0,0,0,0,0,0,0,0,0,0,0,0,0,0,0,0,0,0,0,0,0,0,0,0,0,0,0,0,0,0,0,0,0,0,0,0,0,0,0,0,0,0,0,0,0,0,0,0,0,0,0,0,0,0,0,0,0,0,-0.0923,-0.0924,0,-0.103,-0.1032,-0.1034,-0.1163,-0.1165,-0.1166,-0.1168,-0.1373,-0.1377,-0.1381,0,0,0,0,0,0,0,0,0,0,0,0,0,-0.0906,-0.0906,-0.0923,-0.0924,-0.0925,-0.103,-0.1032,-0.1034,-0.1163,-0.1165,-0.1167,-0.1168,-0.1372,-0.1376,-0.1381,0,0,0,0,0,0,0,0,0,0,0,0,0,-0.0958,-0.0906,-0.0923,-0.0998,-0.1006,-0.103,-0.1032,-0.1035,-0.1162,-0.1165,-0.1167,-0.1169,-0.137,-0.1376,-0.1382,-0.1373,0,0,-0.1401,-0.1403,0,0,0,0,0,0,0,0,-0.0955,-0.0959,-0.0986,-0.0993,-0.1001,-0.1081,-0.1101,-0.1151,-0.1162,-0.1108,-0.1168,-0.117,-0.1279,-0.1293,-0.1314,-0.1383,-0.1392,-0.1401,-0.1405,-0.1407,-0.1409,0,0,0,0,0,0,0,-0.0951,-0.0956,-0.0971,-0.0987,-0.0996,-0.1052,-0.1062,-0.1112,-0.1186,-0.1113,-0.1122,-0.1124,-0.1285,-0.1308,-0.132,-0.1395,-0.1401,-0.1406,-0.141,-0.1412,-0.1485,-0.1483,0,0,0,0,0,0,-0.0921,-0.0952,-0.0968,-0.0974,-0.0977,-0.1049,-0.1061,-0.1057,-0.1183,-0.1202,-0.1122,-0.113,-0.1296,-0.1313,-0.1328,-0.1302,-0.1407,-0.1413,-0.1416,-0.1487,-0.1485,-0.1483,0,0,0,0,0,0,-0.092,-0.0921,-0.0963,-0.0962,-0.0971,-0.1046,-0.1042,-0.1058,-0.108,-0.1188,-0.1211,-0.1127,-0.1299,-0.1319,-0.1354,-0.1312,-0.1416,-0.1421,-0.1489,-0.1486,-0.1484,-0.1265,0,0,0,0,0,0,-0.0919,-0.0919,-0.0907,-0.0959,-0.0969,-0.0955,-0.104,-0.1058,-0.1076,-0.1087,-0.1199,-0.1221,-0.1302,-0.1343,-0.1359,-0.1322,-0.1426,-0.1491,-0.1488,-0.1485,-0.1275,-0.1256,-0.1239,0,0,0,0,0,-0.0918,-0.088,-0.0905,-0.0907,-0.0949,-0.0952,-0.0962,-0.1029,-0.1073,-0.1062,-0.1138,-0.1217,-0.1336,-0.1346,-0.1365,-0.1329,-0.1492,-0.1488,-0.1485,-0.1283,-0.1259,-0.124,0,0,0,0,0,0,-0.0853,-0.0891,-0.092,-0.0893,-0.0912,-0.0972,-0.0964,-0.1009,-0.1059,-0.1074,-0.1188,-0.1213,-0.1233,-0.1307,-0.1316,-0.1343,-0.143,-0.1429,-0.127,-0.1249,-0.1231,-0.1176,-0.1431,0,0,0,0,0,-0.0831,-0.0818,-0.086,-0.0831,-0.0837,-0.0897,-0.0908,-0.0948,-0.0997,-0.1023,-0.1094,-0.1173,-0.123,-0.1258,-0.1323,-0.1324,-0.1361,-0.1318,-0.13,-0.1285,-0.1254,-0.1266,-0.1245,-0.147,-0.147,-0.147,0,0,-0.0794,-0.0812,-0.0804,-0.0817,-0.0841,-0.0824,-0.091,-0.0906,-0.0886,-0.1034,-0.1028,-0.1113,-0.1219,-0.1228,-0.1243,-0.1283,-0.1236,-0.128,-0.1265,-0.1243,-0.126,-0.1237,-0.1218,-0.1468,-0.1468,-0.1468,0,0,-0.0706,-0.0729,-0.0693,-0.0702,-0.0721,-0.0755,-0.0744,-0.0789,-0.0806,-0.0808,-0.0912,-0.0951,-0.1041,-0.1092,-0.1136,-0.1054,-0.1146,-0.1095,-0.0953,-0.0964,-0.0945,-0.0928,-0.092,-0.0905,-0.1081,-0.108,-0.108,0,-0.0662,-0.0626,-0.0677,-0.0644,-0.0636,-0.0712,-0.0666,-0.0682,-0.0729,-0.0721,-0.078,-0.0877,-0.0968,-0.0969,-0.095,-0.1009,-0.1032,-0.1021,-0.0936,-0.0921,-0.0908,-0.0904,-0.089,-0.1069,-0.1071,-0.1072,-0.1073,0,-0.0555,-0.0528,-0.0499,-0.049,-0.0485,-0.0453,-0.0483,-0.0474,-0.0511,-0.0536,-0.0538,-0.0645,-0.0709,-0.074,-0.0824,-0.0778,-0.0828,-0.0912,-0.0978,-0.0871,-0.0875,-0.0864,-0.1054,-0.1057,-0.1061,-0.1063,0,0,-0.0457,-0.0432,-0.0421,-0.0394,-0.0403,-0.0384,-0.0336,-0.0314,-0.0279,-0.0319,-0.0269,-0.0358,-0.0426,-0.0479,-0.0584,-0.0584,-0.0514,-0.0694,-0.07,-0.0661,-0.0517,-0.0532,-0.0523,-0.0587,-0.0584,-0.0582,-0.0546,0,-0.0359,-0.0265,-0.0281,-0.019,-0.015,-0.0191,-0.014,-0.013,-0.0146,-0.0116,-0.0185,-0.0199,-0.0324,-0.0358,-0.0371,-0.0495,-0.0479,-0.0514,-0.0647,-0.065,-0.0658,-0.0509,-0.046,-0.0422,-0.0536,-0.0534,-0.0533,0,-0.0257,-0.021,-0.0102,-0.0048,-0.0032,0.0011,0.0065,0.01,0.0117,0.0107,0.0092,0.0013,-0.0,-0.0129,-0.0215,-0.0237,-0.0343,-0.0424,-0.0427,-0.0508,-0.0645,-0.0557,-0.0399,-0.0645,-0.0517,-0.0519,-0.052,0,-0.0171,-0.0086,0.0005,0.0024,0.0074,0.0124,0.0149,0.0174,0.0216,0.0248,0.0271,0.0225,0.0193,0.0085,-0.0102,-0.0157,-0.0188,-0.0302,-0.0396,-0.0399,-0.0414,-0.0422,-0.0488,-0.0324,-0.0325,-0.0325,-0.0325,0,-0.0072,-0.0,0.0055,0.0104,0.0209,0.0216,0.0318,0.0333,0.0379,0.0452,0.0383,0.0423,0.0242,0.0177,0.0004,-0.0138,-0.0112,-0.0314,-0.0371,-0.0336,-0.0338,-0.0606,-0.0764,-0.0323,-0.0324,-0.0324,-0.0324,0,0.0001,0.004,0.014,0.0221,0.0248,0.0322,0.0402,0.0472,0.0504,0.0598,0.0617,0.0584,0.0515,0.0342,0.0171,-0.0003,-0.0254,-0.0209,-0.0139,-0.0187,-0.0516,-0.0663,-0.0736,-0.0838,-0.0278,-0.0278,-0.0278,0,0.0047,0.0109,0.0215,0.0273,0.0313,0.041,0.0477,0.0526,0.0599,0.0697,0.0756,0.0735,0.0739,0.0517,0.0246,0.002,-0.0228,-0.013,-0.0228,-0.0468,-0.0676,-0.0756,-0.0843,-0.0155,-0.0154,-0.0153,-0.0152,0,0.0126,0.0162,0.0237,0.0354,0.044,0.0543,0.0645,0.0719,0.0798,0.0894,0.1004,0.1031,0.0843,0.0657,0.0341,0.0151,-0.0276,-0.0121,-0.0384,-0.0565,-0.0638,-0.0786,-0.0251,-0.0144,-0.0145,-0.0145,-0.0146,-0.0146,0.0172,0.0236,0.0332,0.0443,0.0542,0.0679,0.0791,0.0905,0.1053,0.1245,0.1227,0.1363,0.1025,0.0624,0.0298,-0.0229,-0.0255,-0.0409,-0.0556,-0.0606,-0.0729,-0.0158,-0.0125,-0.0126,-0.0127,-0.0127,-0.0128,0,0.0234,0.0308,0.0415,0.0563,0.0691,0.0731,0.0908,0.1048,0.1252,0.1446,0.1583,0.1572,0.1131,0.0634,-0.0075,-0.056,-0.0737,-0.0833,-0.0953,-0.1018,-0.051,-0.0536,-0.0572,-0.0572,-0.0572,-0.0571,-0.0571,-0.0571,0.0274,0.0384,0.0446,0.0668,0.0779,0.0986,0.1105,0.1308,0.1495,0.1806,0.1977,0.2058,0.1671,0.0274,-0.0756,-0.1021,-0.1391,-0.1429,-0.1653,-0.136,-0.1333,-0.1307,-0.1367,-0.1577,-0.1579,-0.2061,-0.2066,-0.2071]}],[{"header":{"parameterUnit":"m.s-1","parameterCategory":2,"la1":30.2991,"la2":30.254,"lo1":-89.0895,"lo2":-89.0444,"dy":0.0017,"dx":0.0017,"nx":28,"ny":28,"refTime":"2023-08-10T21:00:00:Z","depth":"2","parameterNumber":2,"parameterNumberName":"U-component_of_CURRENTS"},"data":[0,0,0,0,0,0,0,0,0,0,0,0,0,0,0,0,0,0,0,0,0,0,0,0,0,0,0,0,0,0,0,0,0,0,0,0,0,0,0,0,0,0,0,0,0,0,0,0,0,0,0,0,0,0,0,0,0,0,0.0985,0.0986,0,0.1075,0.1075,0.1076,0.109,0.1089,0.1089,0.1088,0.1122,0.1123,0.1125,0,0,0,0,0,0,0,0,0,0,0,0,0,0.0795,0.0798,0.0985,0.0986,0.0988,0.1074,0.1075,0.1076,0.109,0.1089,0.1089,0.1088,0.1122,0.1123,0.1125,0,0,0,0,0,0,0,0,0,0,0,0,0,0.0877,0.0799,0.0985,0.1007,0.101,0.1074,0.1075,0.1077,0.109,0.1089,0.1088,0.1088,0.1121,0.1123,0.1125,0.1154,0,0,0.1131,0.1132,0,0,0,0,0,0,0,0,0.0873,0.0884,0.1002,0.1006,0.1009,0.1073,0.1021,0.1101,0.109,0.1056,0.1088,0.1087,0.1103,0.1107,0.1122,0.1155,0.1157,0.1132,0.1133,0.1134,0.1134,0,0,0,0,0,0,0,0.0867,0.088,0.1017,0.1004,0.1008,0.1003,0.1013,0.1036,0.108,0.1059,0.1061,0.1076,0.1104,0.112,0.1122,0.1157,0.1132,0.1133,0.1135,0.1136,0.13,0.1303,0,0,0,0,0,0,0.0866,0.0875,0.1014,0.102,0.0941,0.1007,0.1019,0.1051,0.1081,0.1086,0.1077,0.1077,0.1116,0.112,0.1123,0.123,0.1134,0.1136,0.1137,0.1297,0.13,0.1304,0,0,0,0,0,0,0.0861,0.0878,0.1011,0.0951,0.0968,0.1012,0.1047,0.1053,0.1082,0.1095,0.1098,0.1102,0.1116,0.1121,0.119,0.1229,0.1137,0.1139,0.1293,0.1298,0.1302,0.1398,0,0,0,0,0,0,0.0856,0.0876,0.0902,0.0951,0.0971,0.1066,0.1048,0.1055,0.1094,0.1094,0.1118,0.1119,0.1116,0.1187,0.1192,0.123,0.114,0.1289,0.1295,0.1301,0.1391,0.1405,0.1417,0,0,0,0,0,0.0849,0.0887,0.0903,0.092,0.1005,0.1068,0.1079,0.1103,0.1096,0.1123,0.1157,0.1119,0.1227,0.1193,0.1197,0.1236,0.1286,0.1293,0.13,0.1385,0.1402,0.1417,0,0,0,0,0,0,0.0813,0.0894,0.0912,0.0972,0.1025,0.1072,0.1103,0.1116,0.1163,0.1166,0.1167,0.1174,0.1249,0.1238,0.1199,0.1304,0.1247,0.1255,0.131,0.1326,0.1339,0.1356,0.1142,0,0,0,0,0,0.0821,0.0876,0.0942,0.0991,0.1022,0.1065,0.1094,0.1115,0.116,0.1179,0.1203,0.1233,0.128,0.1299,0.1334,0.1391,0.1408,0.1419,0.1433,0.1444,0.1464,0.1538,0.1559,0.1327,0.1327,0.1327,0,0,0.0818,0.0873,0.0901,0.0988,0.103,0.1091,0.108,0.1138,0.1189,0.1176,0.1257,0.1285,0.1311,0.1386,0.1415,0.1379,0.1523,0.1453,0.1462,0.1477,0.1547,0.157,0.159,0.1332,0.1331,0.133,0,0,0.0844,0.0895,0.095,0.1003,0.1081,0.1116,0.1137,0.1204,0.1236,0.1318,0.133,0.1398,0.1448,0.1491,0.1513,0.1624,0.1598,0.1619,0.1693,0.1764,0.1784,0.1801,0.1863,0.1885,0.1617,0.1617,0.1618,0,0.0835,0.092,0.0972,0.1041,0.1089,0.1132,0.1195,0.1244,0.1324,0.137,0.1355,0.149,0.1505,0.1614,0.1656,0.1654,0.1684,0.1624,0.1781,0.1798,0.1814,0.1874,0.1897,0.1623,0.1622,0.1622,0.1621,0,0.0907,0.0973,0.1012,0.1118,0.1175,0.1237,0.1312,0.1375,0.1414,0.1465,0.1582,0.1628,0.1709,0.172,0.1724,0.1849,0.1832,0.1794,0.1735,0.1844,0.1899,0.1921,0.1631,0.1629,0.1627,0.1626,0,0,0.0889,0.1032,0.1048,0.1101,0.1219,0.127,0.1374,0.1482,0.1555,0.1633,0.1733,0.1833,0.1862,0.1892,0.1906,0.1963,0.2105,0.1932,0.1933,0.1985,0.2268,0.2089,0.2096,0.2091,0.2095,0.2098,0.2265,0,0.0928,0.1048,0.1121,0.1231,0.1293,0.1375,0.1467,0.1569,0.1652,0.176,0.1832,0.1937,0.1924,0.1975,0.204,0.2093,0.2167,0.2064,0.2163,0.2166,0.1987,0.2116,0.1946,0.2065,0.2286,0.229,0.2292,0,0.0975,0.105,0.1159,0.1287,0.1324,0.1402,0.1553,0.1644,0.1804,0.1875,0.1997,0.2052,0.2192,0.2138,0.231,0.2245,0.2282,0.2303,0.2309,0.2123,0.2028,0.1992,0.2096,0.2329,0.2326,0.2323,0.2321,0,0.0928,0.1074,0.1156,0.1204,0.1358,0.143,0.1522,0.1682,0.177,0.1964,0.2041,0.2203,0.229,0.2375,0.2436,0.2395,0.2584,0.2525,0.2407,0.2395,0.226,0.2226,0.2654,0.2653,0.2653,0.2653,0.2652,0,0.0937,0.1003,0.1143,0.1189,0.1295,0.1415,0.1549,0.1668,0.1834,0.195,0.21,0.2201,0.2353,0.2461,0.25,0.2526,0.2651,0.2457,0.2437,0.2286,0.2254,0.2476,0.2453,0.2659,0.2657,0.2656,0.2655,0,0.0883,0.0974,0.1066,0.1222,0.1276,0.1356,0.1544,0.164,0.1811,0.1965,0.2034,0.2244,0.2397,0.2507,0.2656,0.259,0.2638,0.2612,0.2414,0.2364,0.2391,0.2372,0.2516,0.2512,0.2508,0.2504,0.2502,0,0.0873,0.0913,0.1063,0.112,0.1199,0.1332,0.1426,0.1614,0.1709,0.197,0.2025,0.2237,0.233,0.2473,0.2461,0.2507,0.26,0.2334,0.2201,0.2417,0.2384,0.2371,0.2357,0.2093,0.2087,0.2083,0.2079,0,0.0845,0.0893,0.097,0.1078,0.1178,0.1287,0.1428,0.1484,0.1706,0.1821,0.1991,0.2085,0.2222,0.2198,0.2228,0.2206,0.2304,0.2226,0.2575,0.2101,0.2017,0.1983,0.1985,0.2036,0.204,0.2043,0.2045,0.2047,0.082,0.086,0.0958,0.1062,0.1153,0.1241,0.1311,0.1426,0.1541,0.1695,0.1821,0.1913,0.1953,0.1897,0.1892,0.1905,0.1993,0.1926,0.1943,0.1966,0.1834,0.1741,0.1686,0.1688,0.169,0.1692,0.1693,0,0.0825,0.0882,0.0949,0.1065,0.1123,0.121,0.1317,0.1342,0.1424,0.1554,0.1644,0.151,0.1506,0.1634,0.1565,0.1505,0.1519,0.1486,0.1535,0.1575,0.1611,0.1464,0.1218,0.1217,0.1217,0.1216,0,0,0.0834,0.09,0.094,0.1026,0.1102,0.1183,0.1234,0.1233,0.1296,0.1278,0.1331,0.141,0.1524,0.1347,0.1313,0.1304,0.1439,0.125,0.1618,0.1715,0.1751,0.1833,0.1645,0,0,0,0,0]},{"header":{"parameterUnit":"m.s-1","parameterCategory":2,"la1":30.2991,"la2":30.254,"lo1":-89.0895,"lo2":-89.0444,"dy":0.0017,"dx":0.0017,"nx":28,"ny":28,"refTime":"2023-08-10T21:00:00:Z","depth":"2","parameterNumber":3,"parameterNumberName":"V-component_of_CURRENTS"},"data":[0,0,0,0,0,0,0,0,0,0,0,0,0,0,0,0,0,0,0,0,0,0,0,0,0,0,0,0,0,0,0,0,0,0,0,0,0,0,0,0,0,0,0,0,0,0,0,0,0,0,0,0,0,0,0,0,0,0,0.0443,0.0444,0,0.0479,0.0479,0.048,0.0471,0.047,0.047,0.0469,0.037,0.0368,0.0366,0,0,0,0,0,0,0,0,0,0,0,0,0,0.033,0.0332,0.0443,0.0444,0.0444,0.0479,0.048,0.048,0.0471,0.047,0.047,0.0469,0.0371,0.0369,0.0366,0,0,0,0,0,0,0,0,0,0,0,0,0,0.0373,0.0333,0.0443,0.0445,0.0445,0.0479,0.048,0.048,0.0471,0.047,0.0469,0.0469,0.0372,0.0369,0.0366,0.0365,0,0,0.0356,0.0355,0,0,0,0,0,0,0,0,0.037,0.0377,0.0444,0.0445,0.0445,0.0471,0.0403,0.0435,0.0471,0.046,0.0469,0.0468,0.0393,0.0388,0.0397,0.036,0.0356,0.0356,0.0354,0.0353,0.0352,0,0,0,0,0,0,0,0.0367,0.0375,0.0456,0.0445,0.0446,0.0431,0.0437,0.041,0.0428,0.0461,0.0461,0.0467,0.0392,0.04,0.0394,0.0354,0.0356,0.0353,0.0351,0.035,0.0247,0.0246,0,0,0,0,0,0,0.0369,0.0373,0.0455,0.0457,0.0406,0.0434,0.044,0.0463,0.0431,0.0427,0.0468,0.0466,0.0406,0.0398,0.0391,0.035,0.0353,0.035,0.0348,0.0248,0.0247,0.0246,0,0,0,0,0,0,0.0366,0.0376,0.0454,0.0415,0.0424,0.0438,0.0463,0.0464,0.0463,0.0438,0.043,0.0465,0.0405,0.0395,0.0368,0.0347,0.0349,0.0346,0.0249,0.0248,0.0246,0.0291,0,0,0,0,0,0,0.0363,0.0376,0.0389,0.0416,0.0427,0.0471,0.0464,0.0465,0.0469,0.0468,0.0432,0.0423,0.0404,0.0373,0.0365,0.0342,0.0343,0.025,0.0248,0.0247,0.0291,0.0291,0.0292,0,0,0,0,0,0.0359,0.0391,0.039,0.04,0.0447,0.0472,0.0475,0.048,0.047,0.0474,0.0453,0.0424,0.0356,0.0372,0.0362,0.0337,0.0251,0.0249,0.0247,0.029,0.0291,0.0292,0,0,0,0,0,0,0.0363,0.0394,0.0393,0.0437,0.0447,0.047,0.0482,0.0477,0.0468,0.0461,0.0429,0.0419,0.0385,0.0355,0.0372,0.03,0.0291,0.0288,0.0327,0.0328,0.0329,0.0341,0.0341,0,0,0,0,0,0.0368,0.0391,0.0414,0.0446,0.0453,0.0462,0.0471,0.0472,0.0471,0.0467,0.044,0.0403,0.0372,0.0347,0.0319,0.0287,0.0241,0.0257,0.0258,0.0259,0.0261,0.0164,0.0156,0.0239,0.0239,0.024,0,0,0.038,0.0398,0.0413,0.0445,0.0457,0.0476,0.0466,0.0483,0.0488,0.0454,0.0446,0.0411,0.0366,0.0335,0.0313,0.0305,0.0214,0.0256,0.0258,0.0259,0.0161,0.0153,0.0146,0.0238,0.0238,0.0239,0,0,0.0413,0.043,0.0455,0.0466,0.0481,0.0485,0.0487,0.0498,0.0491,0.0483,0.0452,0.0412,0.0368,0.0332,0.0307,0.0291,0.0228,0.0265,0.0272,0.0178,0.0171,0.0164,0.0114,0.0102,0.0257,0.0257,0.0257,0,0.0416,0.0465,0.0466,0.049,0.0504,0.0488,0.0515,0.0509,0.0505,0.0495,0.0481,0.0409,0.0369,0.0322,0.0313,0.0293,0.0239,0.0278,0.018,0.0172,0.0163,0.0114,0.01,0.0259,0.0259,0.0259,0.0258,0,0.047,0.0502,0.052,0.0542,0.055,0.0573,0.0565,0.0556,0.0537,0.0526,0.0481,0.043,0.0384,0.0352,0.0329,0.0247,0.023,0.02,0.0183,0.0158,0.0108,0.0092,0.0262,0.0261,0.026,0.026,0,0,0.0493,0.0545,0.0549,0.0573,0.058,0.0599,0.0593,0.059,0.0594,0.0546,0.0537,0.0459,0.042,0.0388,0.0336,0.0249,0.015,0.0197,0.0191,0.0158,-0.0039,-0.0031,-0.0047,0.009,0.0087,0.0085,-0.0043,0,0.053,0.0595,0.0601,0.065,0.0685,0.0662,0.0667,0.0652,0.063,0.0613,0.0528,0.0501,0.0436,0.0412,0.0311,0.0205,0.0108,0.019,-0.002,-0.0025,-0.0008,-0.0066,-0.0082,-0.0198,-0.0059,-0.0061,-0.0063,0,0.0579,0.0619,0.0678,0.0721,0.0731,0.0745,0.0749,0.0756,0.0712,0.0692,0.0628,0.057,0.0463,0.0402,0.0182,0.0232,0.0092,-0.0005,-0.0013,-0.0033,-0.0047,-0.0157,-0.0231,-0.0089,-0.0087,-0.0085,-0.0083,0,0.0613,0.0671,0.0722,0.0737,0.0775,0.0783,0.0793,0.0775,0.0802,0.0742,0.075,0.0605,0.0559,0.035,0.0165,0.0151,-0.0076,-0.0117,-0.0244,-0.0243,-0.031,-0.031,-0.031,-0.031,-0.031,-0.031,-0.0309,0,0.0664,0.0707,0.0743,0.0778,0.0837,0.0834,0.0888,0.0874,0.0877,0.0916,0.0798,0.0789,0.0534,0.0391,0.018,-0.0055,-0.0072,-0.0253,-0.0291,-0.0291,-0.0288,-0.0236,-0.0226,-0.0314,-0.0313,-0.0312,-0.0312,0,0.0711,0.0734,0.0804,0.0847,0.0864,0.091,0.0979,0.1026,0.1006,0.105,0.1036,0.0921,0.0725,0.0484,0.0172,-0.0002,-0.0245,-0.0333,-0.0285,-0.0315,-0.0357,-0.0343,-0.0507,-0.0508,-0.0509,-0.051,-0.051,0,0.0748,0.079,0.0862,0.0917,0.0943,0.1011,0.1072,0.1089,0.1146,0.1136,0.1164,0.1006,0.0866,0.0457,0.0115,-0.025,-0.0259,-0.0454,-0.0497,-0.0365,-0.0386,-0.037,-0.0355,-0.0565,-0.0566,-0.0567,-0.0568,0,0.0824,0.0842,0.0904,0.1004,0.108,0.1181,0.1256,0.1313,0.1334,0.1338,0.1319,0.1195,0.0815,0.0412,-0.004,-0.0261,-0.0396,-0.0482,-0.0399,-0.0491,-0.0426,-0.0443,-0.0426,-0.0576,-0.0575,-0.0574,-0.0574,-0.0574,0.0878,0.0935,0.1005,0.1103,0.1201,0.1314,0.1398,0.1457,0.1515,0.1456,0.1359,0.112,0.0719,0.0054,-0.0232,-0.047,-0.0487,-0.0611,-0.0608,-0.0603,-0.0565,-0.0503,-0.0659,-0.0659,-0.0658,-0.0658,-0.0658,0,0.0937,0.0998,0.1101,0.1224,0.1337,0.1371,0.1505,0.1554,0.1601,0.145,0.132,0.0785,0.0354,0.0017,-0.0389,-0.0659,-0.0663,-0.0686,-0.0664,-0.0657,-0.0651,-0.0613,-0.0721,-0.0721,-0.0721,-0.0721,0,0,0.0977,0.1069,0.1122,0.1307,0.14,0.1548,0.1624,0.1665,0.1601,0.1316,0.1082,0.0741,0.0336,0.0001,-0.0337,-0.0499,-0.0491,-0.0513,-0.045,-0.0379,-0.0367,-0.0613,-0.0547,0,0,0,0,0]}],[{"header":{"parameterUnit":"m.s-1","parameterCategory":2,"la1":30.2991,"la2":30.254,"lo1":-89.0895,"lo2":-89.0444,"dy":0.0017,"dx":0.0017,"nx":28,"ny":28,"refTime":"2023-08-10T21:00:00:Z","depth":"4","parameterNumber":2,"parameterNumberName":"U-component_of_CURRENTS"},"data":[0,0,0,0,0,0,0,0,0,0,0,0,0,0,0,0,0,0,0,0,0,0,0,0,0,0,0,0,0,0,0,0,0,0,0,0,0,0,0,0,0,0,0,0,0,0,0,0,0,0,0,0,0,0,0,0,0,0,0.0481,0.0482,0,0.0532,0.0532,0.0532,0.0572,0.0572,0.0573,0.0574,0.0626,0.0626,0.0627,0,0,0,0,0,0,0,0,0,0,0,0,0,0.0426,0.0426,0.0481,0.0482,0.0483,0.0532,0.0532,0.0532,0.0572,0.0572,0.0573,0.0574,0.0625,0.0626,0.0627,0,0,0,0,0,0,0,0,0,0,0,0,0,0.0458,0.0426,0.0481,0.051,0.0514,0.0531,0.0532,0.0533,0.0571,0.0572,0.0573,0.0574,0.0625,0.0626,0.0627,0.0616,0,0,0.0631,0.0632,0,0,0,0,0,0,0,0,0.0456,0.0459,0.0505,0.0508,0.0512,0.0549,0.0532,0.0561,0.0571,0.0547,0.0574,0.0575,0.0601,0.0604,0.0608,0.0618,0.062,0.0631,0.0632,0.0632,0.0633,0,0,0,0,0,0,0,0.0453,0.0457,0.0498,0.0506,0.051,0.0524,0.0529,0.0537,0.0566,0.0549,0.0552,0.0562,0.0603,0.0606,0.0609,0.0621,0.0631,0.0632,0.0633,0.0633,0.0643,0.0643,0,0,0,0,0,0,0.0451,0.0455,0.0497,0.05,0.0489,0.0524,0.053,0.0534,0.0566,0.0572,0.0561,0.0564,0.0604,0.0608,0.0611,0.0635,0.0632,0.0633,0.0634,0.0644,0.0643,0.0643,0,0,0,0,0,0,0.045,0.0454,0.0495,0.0481,0.0488,0.0524,0.0528,0.0534,0.056,0.0576,0.0582,0.0584,0.0605,0.061,0.0622,0.0636,0.0634,0.0635,0.0644,0.0644,0.0643,0.0659,0,0,0,0,0,0,0.0448,0.0453,0.0464,0.0481,0.0489,0.0519,0.0528,0.0535,0.0565,0.0569,0.0597,0.0601,0.0606,0.062,0.0623,0.0637,0.0636,0.0645,0.0644,0.0643,0.0659,0.0659,0.0658,0,0,0,0,0,0.0446,0.0452,0.0464,0.047,0.0499,0.052,0.0525,0.0552,0.0565,0.0578,0.0585,0.0602,0.0617,0.062,0.0624,0.0639,0.0645,0.0644,0.0643,0.0659,0.0659,0.0658,0,0,0,0,0,0,0.0429,0.0457,0.0471,0.0484,0.0509,0.0528,0.0545,0.0561,0.0578,0.0585,0.0596,0.0601,0.0613,0.0618,0.0622,0.0636,0.0634,0.0633,0.0644,0.0644,0.0644,0.0655,0.0637,0,0,0,0,0,0.043,0.0447,0.0472,0.0486,0.0499,0.0525,0.0541,0.0559,0.0573,0.0583,0.0601,0.0609,0.0607,0.0621,0.062,0.0634,0.0637,0.0644,0.0644,0.0644,0.0653,0.0647,0.0648,0.0639,0.0639,0.0639,0,0,0.0428,0.0447,0.0457,0.0485,0.0505,0.0526,0.0537,0.0564,0.0582,0.0584,0.0613,0.061,0.0607,0.0615,0.0623,0.0628,0.0649,0.0643,0.0643,0.0652,0.0646,0.0647,0.0648,0.0639,0.0639,0.0639,0,0,0.043,0.0448,0.0465,0.0487,0.0523,0.0537,0.055,0.0579,0.0595,0.0616,0.0612,0.0612,0.0632,0.0624,0.0622,0.062,0.0641,0.0629,0.0652,0.0645,0.0646,0.0647,0.0661,0.0663,0.0638,0.0639,0.0639,0,0.0429,0.0452,0.0473,0.0496,0.0517,0.0545,0.0567,0.0582,0.0612,0.0622,0.063,0.0634,0.0632,0.0628,0.0628,0.0622,0.0634,0.0655,0.0647,0.0648,0.0649,0.0663,0.0665,0.0639,0.0639,0.0639,0.0639,0,0.0442,0.0469,0.048,0.0519,0.054,0.0564,0.059,0.0612,0.0635,0.065,0.066,0.0647,0.0655,0.0648,0.0643,0.0646,0.0658,0.0641,0.0652,0.0651,0.0665,0.0667,0.064,0.064,0.064,0.0639,0,0,0.0421,0.048,0.0486,0.0513,0.0557,0.0575,0.0602,0.0632,0.0653,0.0673,0.0693,0.0679,0.0683,0.068,0.0668,0.0665,0.0676,0.0668,0.0668,0.0691,0.0689,0.0704,0.0708,0.0667,0.0667,0.0667,0.0701,0,0.043,0.0475,0.0501,0.0546,0.0573,0.0603,0.0626,0.0654,0.0678,0.0702,0.0693,0.0705,0.0693,0.07,0.0693,0.0677,0.0682,0.067,0.0679,0.0679,0.07,0.071,0.0668,0.0702,0.0703,0.0703,0.0703,0,0.0435,0.0469,0.0513,0.0569,0.0582,0.0611,0.0655,0.068,0.071,0.0728,0.0742,0.0744,0.0746,0.0729,0.0721,0.0722,0.0714,0.07,0.07,0.0713,0.0698,0.07,0.0707,0.0707,0.0706,0.0706,0.0706,0,0.0413,0.0475,0.0514,0.0534,0.0596,0.0622,0.0655,0.0691,0.0714,0.0751,0.0772,0.0776,0.0786,0.0771,0.0762,0.0748,0.0756,0.0724,0.073,0.0732,0.0702,0.07,0.0718,0.0718,0.0717,0.0717,0.0717,0,0.0409,0.044,0.0513,0.0534,0.0577,0.0623,0.0665,0.0695,0.0738,0.0763,0.079,0.0802,0.0798,0.0806,0.0783,0.0781,0.0777,0.0745,0.0741,0.0708,0.0706,0.0704,0.0702,0.0719,0.0718,0.0718,0.0718,0,0.0376,0.0425,0.047,0.0543,0.057,0.0601,0.0674,0.0696,0.0749,0.0782,0.0799,0.0834,0.0853,0.0854,0.0837,0.0815,0.0799,0.0796,0.0791,0.0784,0.0774,0.0773,0.0803,0.0803,0.0804,0.0805,0.0805,0,0.0364,0.0386,0.0466,0.0494,0.0532,0.0591,0.0622,0.069,0.0717,0.079,0.0797,0.0848,0.0865,0.0862,0.0862,0.0854,0.0835,0.0836,0.0777,0.079,0.0783,0.078,0.0777,0.0806,0.0806,0.0807,0.0807,0,0.0333,0.0363,0.0399,0.046,0.0506,0.055,0.061,0.0633,0.0706,0.0755,0.0791,0.0816,0.0849,0.0853,0.0876,0.0852,0.0837,0.0842,0.0839,0.0784,0.0795,0.0786,0.0783,0.0809,0.0809,0.0809,0.0809,0,0.0304,0.0316,0.0368,0.0418,0.0471,0.0508,0.0546,0.0598,0.064,0.0731,0.0738,0.0791,0.0835,0.0853,0.0857,0.0866,0.084,0.0803,0.0802,0.0799,0.0785,0.0798,0.0819,0,0,0,0,0,0.0274,0.0289,0.0327,0.0383,0.0432,0.0465,0.0535,0.0573,0.065,0.0663,0.0708,0.0738,0.078,0.0804,0.081,0.0852,0.0837,0.0858,0.0792,0.0823,0.082,0.0805,0,0,0,0,0,0,0.0255,0.0285,0.0308,0.0346,0.0376,0.0425,0.0468,0.0517,0.0541,0.0618,0.0639,0.0703,0.0743,0.076,0.0792,0.0804,0.0755,0.0898,0.0898,0.0824,0.0822,0.0819,0.0803,0,0,0,0,0]},{"header":{"parameterUnit":"m.s-1","parameterCategory":2,"la1":30.2991,"la2":30.254,"lo1":-89.0895,"lo2":-89.0444,"dy":0.0017,"dx":0.0017,"nx":28,"ny":28,"refTime":"2023-08-10T21:00:00:Z","depth":"4","parameterNumber":3,"parameterNumberName":"V-component_of_CURRENTS"},"data":[0,0,0,0,0,0,0,0,0,0,0,0,0,0,0,0,0,0,0,0,0,0,0,0,0,0,0,0,0,0,0,0,0,0,0,0,0,0,0,0,0,0,0,0,0,0,0,0,0,0,0,0,0,0,0,0,0,0,-0.0125,-0.0125,0,-0.0188,-0.0189,-0.019,-0.0201,-0.0201,-0.02,-0.02,-0.0245,-0.0247,-0.0248,0,0,0,0,0,0,0,0,0,0,0,0,0,-0.0062,-0.0063,-0.0125,-0.0125,-0.0126,-0.0188,-0.0189,-0.019,-0.0202,-0.0201,-0.02,-0.02,-0.0245,-0.0247,-0.0249,0,0,0,0,0,0,0,0,0,0,0,0,0,-0.0103,-0.0063,-0.0124,-0.0139,-0.0141,-0.0188,-0.0189,-0.019,-0.0202,-0.0201,-0.02,-0.0199,-0.0244,-0.0246,-0.0249,-0.028,0,0,-0.0257,-0.0258,0,0,0,0,0,0,0,0,-0.0101,-0.0106,-0.0136,-0.0138,-0.0141,-0.0186,-0.0183,-0.0219,-0.0202,-0.0179,-0.02,-0.0199,-0.0224,-0.0228,-0.0242,-0.0282,-0.0284,-0.0257,-0.0258,-0.0259,-0.026,0,0,0,0,0,0,0,-0.0098,-0.0103,-0.015,-0.0137,-0.014,-0.016,-0.0164,-0.0191,-0.0205,-0.0181,-0.0182,-0.0189,-0.0225,-0.024,-0.0243,-0.0285,-0.0257,-0.0259,-0.0261,-0.0262,-0.0381,-0.0382,0,0,0,0,0,0,-0.0089,-0.01,-0.0148,-0.0152,-0.0119,-0.0161,-0.0166,-0.0172,-0.0205,-0.0209,-0.019,-0.0189,-0.0236,-0.024,-0.0245,-0.03,-0.0259,-0.0262,-0.0263,-0.0379,-0.0381,-0.0383,0,0,0,0,0,0,-0.0087,-0.0092,-0.0145,-0.0128,-0.0136,-0.0163,-0.017,-0.0174,-0.0196,-0.0212,-0.0216,-0.0208,-0.0236,-0.0241,-0.0281,-0.0301,-0.0263,-0.0265,-0.0377,-0.038,-0.0382,-0.0399,0,0,0,0,0,0,-0.0085,-0.0091,-0.0103,-0.0127,-0.0136,-0.0175,-0.017,-0.0176,-0.0201,-0.0202,-0.0229,-0.0232,-0.0235,-0.0277,-0.0284,-0.0304,-0.0267,-0.0375,-0.0378,-0.0381,-0.0397,-0.0402,-0.0407,0,0,0,0,0,-0.0083,-0.0099,-0.0103,-0.011,-0.0148,-0.0175,-0.0182,-0.0199,-0.0203,-0.0216,-0.0239,-0.0231,-0.0301,-0.0281,-0.0288,-0.0309,-0.0374,-0.0377,-0.0381,-0.0394,-0.0401,-0.0407,0,0,0,0,0,0,-0.0088,-0.0103,-0.0107,-0.0131,-0.0152,-0.0177,-0.0199,-0.0208,-0.0239,-0.0242,-0.0254,-0.0259,-0.0303,-0.031,-0.0287,-0.0355,-0.0336,-0.0341,-0.0344,-0.035,-0.0355,-0.0334,-0.0269,0,0,0,0,0,-0.0093,-0.0105,-0.0123,-0.0146,-0.0157,-0.0181,-0.0199,-0.0207,-0.0232,-0.0245,-0.0265,-0.0292,-0.0325,-0.0339,-0.0366,-0.0404,-0.0402,-0.0424,-0.0429,-0.0433,-0.0422,-0.0448,-0.0454,-0.0395,-0.0395,-0.0395,0,0,-0.0104,-0.0114,-0.0123,-0.0148,-0.0169,-0.0185,-0.019,-0.0218,-0.0233,-0.0246,-0.0283,-0.0313,-0.0341,-0.0382,-0.0402,-0.0388,-0.0451,-0.0437,-0.044,-0.0428,-0.0453,-0.0458,-0.0463,-0.0398,-0.0397,-0.0397,0,0,-0.0122,-0.014,-0.015,-0.0166,-0.0191,-0.0203,-0.0211,-0.024,-0.0255,-0.0294,-0.0311,-0.035,-0.0397,-0.0418,-0.0436,-0.0487,-0.048,-0.0505,-0.0508,-0.0534,-0.0538,-0.0542,-0.055,-0.0554,-0.0503,-0.0503,-0.0503,0,-0.0135,-0.0146,-0.0162,-0.0174,-0.0188,-0.0209,-0.0222,-0.0245,-0.0283,-0.03,-0.0305,-0.0387,-0.041,-0.0458,-0.0478,-0.0496,-0.0505,-0.0479,-0.0538,-0.0541,-0.0545,-0.0552,-0.0556,-0.0504,-0.0504,-0.0504,-0.0503,0,-0.015,-0.0165,-0.0178,-0.0192,-0.0211,-0.023,-0.0252,-0.0276,-0.0298,-0.0319,-0.0374,-0.0414,-0.0455,-0.048,-0.0494,-0.054,-0.0537,-0.0542,-0.0514,-0.0551,-0.0557,-0.0561,-0.0506,-0.0505,-0.0505,-0.0505,0,0,-0.0157,-0.018,-0.0184,-0.019,-0.0219,-0.0233,-0.0263,-0.0292,-0.0308,-0.0354,-0.0383,-0.0451,-0.0471,-0.0493,-0.0523,-0.0548,-0.0587,-0.0556,-0.0557,-0.0549,-0.0636,-0.0605,-0.0607,-0.0606,-0.0606,-0.0607,-0.063,0,-0.0163,-0.0177,-0.019,-0.0212,-0.0221,-0.0246,-0.0269,-0.0299,-0.0329,-0.0362,-0.041,-0.0452,-0.0477,-0.0502,-0.0534,-0.0575,-0.0599,-0.0579,-0.0614,-0.0614,-0.057,-0.0611,-0.061,-0.0633,-0.0634,-0.0635,-0.0635,0,-0.0168,-0.0174,-0.0189,-0.021,-0.0218,-0.0234,-0.0266,-0.029,-0.0338,-0.0363,-0.0409,-0.0444,-0.0498,-0.0511,-0.0583,-0.0572,-0.0604,-0.063,-0.0632,-0.0595,-0.0591,-0.0591,-0.0642,-0.0642,-0.0641,-0.0641,-0.064,0,-0.0152,-0.0174,-0.0181,-0.019,-0.0218,-0.0232,-0.0252,-0.0293,-0.0309,-0.0363,-0.0377,-0.0446,-0.0475,-0.0532,-0.0586,-0.0591,-0.0652,-0.0664,-0.0663,-0.0661,-0.067,-0.0666,-0.071,-0.071,-0.071,-0.071,-0.071,0,-0.0148,-0.0159,-0.0174,-0.018,-0.019,-0.0219,-0.0238,-0.0266,-0.0301,-0.0313,-0.0375,-0.0392,-0.0484,-0.0528,-0.0582,-0.0628,-0.0649,-0.0664,-0.0669,-0.0679,-0.0676,-0.0673,-0.0669,-0.0711,-0.0711,-0.071,-0.071,0,-0.014,-0.0149,-0.0158,-0.0179,-0.0184,-0.0195,-0.0219,-0.023,-0.0265,-0.028,-0.0294,-0.0358,-0.0417,-0.0493,-0.0578,-0.061,-0.0664,-0.0675,-0.0666,-0.067,-0.0657,-0.0653,-0.0681,-0.068,-0.0679,-0.0679,-0.0678,0,-0.0141,-0.0143,-0.0151,-0.0149,-0.0161,-0.0175,-0.018,-0.0212,-0.0215,-0.0249,-0.0249,-0.0311,-0.0356,-0.0437,-0.0535,-0.0629,-0.0642,-0.0664,-0.0678,-0.0653,-0.0656,-0.0653,-0.0651,-0.0677,-0.0677,-0.0677,-0.0676,0,-0.0142,-0.0144,-0.0146,-0.0134,-0.0135,-0.0137,-0.0144,-0.0136,-0.0162,-0.0187,-0.0191,-0.0249,-0.0313,-0.0407,-0.0482,-0.0553,-0.065,-0.0658,-0.066,-0.0673,-0.0649,-0.0652,-0.065,-0.0674,-0.0674,-0.0675,-0.0675,0,-0.0145,-0.0141,-0.0133,-0.0121,-0.0115,-0.0102,-0.0108,-0.0101,-0.0106,-0.0129,-0.0127,-0.0207,-0.0262,-0.0367,-0.0436,-0.0505,-0.0528,-0.0543,-0.0552,-0.0555,-0.0518,-0.0469,-0.0443,0,0,0,0,0,-0.0147,-0.0134,-0.0121,-0.0103,-0.0091,-0.0087,-0.0083,-0.0088,-0.0096,-0.0079,-0.0099,-0.015,-0.0255,-0.0314,-0.0375,-0.0448,-0.056,-0.0522,-0.0585,-0.0661,-0.0664,-0.0639,0,0,0,0,0,0,-0.0147,-0.0134,-0.0118,-0.0085,-0.0069,-0.0057,-0.0053,-0.0058,-0.0048,-0.0061,-0.0113,-0.0148,-0.0257,-0.021,-0.0367,-0.0395,-0.0438,-0.0581,-0.0582,-0.0659,-0.0662,-0.0664,-0.064,0,0,0,0,0]}]]